星链-4263 (STARLINK-4263 )

导读

STARLINK-4263是美国于2022年7月7日08:00发射的星链卫星,是SpaceX星链互联网卫星星座的组成部分。星链计划旨在构建全球卫星互联网,为偏远地区等提供高速网络服务。作为低轨卫星星座成员,它承担着通信信号转发任务,推进全球互联覆盖,也引发了天文观测等领域相关争议。

基本信息
目录编号:
53010
目录名称:
STARLINK-4263
国际标识:
2022-076AA
轨道中心:
EARTH
卫星名称:
星链-4263
卫星全名:
星链-4263 (STARLINK-4263 )
卫星状态:
在轨 (已飞行1441 天)
发射日期:
2022-07-07 UTC
国别 :
美国 (US)
星等 :
--
轨道信息
数据来源 国际轨道数据 AOE轨道数据
星历时间 2026-06-17T04:35:40+0800
16小时前
查看轨道信息
2026-06-11T18:00:00+0800
6天前
查看轨道信息
半长轴 6917.952km 6917.886km
偏心率 0.000135 0.0001629
轨道倾角 53.160° 53.160°
近地点辐角 83.218° 79.467°
升交点赤经 8.569° 33.031°
平近点角 276.896° 227.675°
近地点 538.881km 538.622km
远地点 540.749km 540.876km
周期 95.439分钟 95.438分钟
每日圈数 15.088167 15.088382
详细信息
固有亮度:
5
最大亮度:
2.5
卫星平台:
Starlink v1.5
覆盖范围:
全球
运营商:
太空探索技术公司
运营商所在国:
美国
制造商(研发单位):
太空探索技术公司
制造商所在国:
美国
使用方式:
暂无
卫星简介
星链(Starlink)计划是由太空探索技术公司(SpaceX)提出的一个巨型低轨卫星互联网星座项目,计划在2019年至2024年间在太空搭建由约1.2万颗卫星组成的“星链”网络,其中1584颗将部署在地球上空550千米处的近地轨道,并从2020年开始工作。该卫星仍在工作。
2D轨道图
3D轨道图
轨道高度分析图
轨道倾角分析图
轨道综合分析图
查看轨道综合分析图